Regional Weather Roundup
Issued by NWS Newport/Morehead, NC

Current Version | Previous Version | Text Only | Print | Product List | Glossary On
Versions: 1 2 3 4 5 6 7 8 9 10 11 12 13 14 15 16 17 18 19 20 21 22 23 24 25 26 27 28 29 30 31 32 33 34 35 36 37 38 39 40 41 42 43 44 45 46 47 48 49 50
000
ASUS42 KMHX 030813
RWRMHX
WEATHER ROUNDUP FOR EASTERN NORTH CAROLINA
NATIONAL WEATHER SERVICE NEWPORT/MOREHEAD CITY NC
400 AM EDT TUE MAY 03 2016

NOTE: "FAIR" INDICATES FEW OR NO CLOUDS BELOW 12,000 FEET
WITH NO SIGNIFICANT WEATHER AND/OR OBSTRUCTIONS TO VISIBILITY

NCZ015>017-031-032-045>047-102-103-030900-
NORTH COAST

CITY           SKY/WX    TMP DP  RH WIND       PRES   REMARKS
EDENTON        CLOUDY    71  71 100 SW3       29.86R
ELIZABETH CITY LGT RAIN  69  67  93 SW5       29.85S
KITTY HAWK     CLOUDY    72  68  87 SW6       29.85R
MANTEO         NOT AVBL

$$

NCZ045>047-081-094-103-104-030900-
CENTRAL COAST

CITY           SKY/WX    TMP DP  RH WIND       PRES   REMARKS
FRISCO         CLOUDY    71  69  93 SW13      29.88F
SWANQUARTER    NOT AVBL

$$

NCZ095-097-098-100-101-030900-
SOUTHERN COAST

CITY           SKY/WX    TMP DP  RH WIND       PRES   REMARKS
BEAUFORT       CLOUDY    71  70  96 S13       29.88F
CEDAR ISLAND   NOT AVBL
JACKSONVILLE   CLOUDY    72  69  90 S10       29.86F
PINEY ISLAND   NOT AVBL
WILMINGTON     CLOUDY    73  68  84 S10       29.88S


$$

NCZ011>013-027>030-043-044-078>080-089-090>093-098-030900-
COASTAL PLAIN

CITY           SKY/WX    TMP DP  RH WIND       PRES   REMARKS
AHOSKIE        RAIN      65  64  94 S3        29.86F
CLINTON        CLOUDY    69  69 100 CALM      29.87S FOG
ELIZABETHTOWN  CLOUDY    71  71 100 CALM      29.87S
GOLDSBORO      NOT AVBL
GREENVILLE     CLOUDY    70  68  94 W6        29.89R
HAVELOCK       CLOUDY    72  67  84 S13G21    29.88F
KENANSVILLE    CLOUDY    69  68  98 CALM      29.88R FOG
KINSTON        LGT RAIN  70  69  95 SW9       29.87R
NEW BERN       CLOUDY    72  68  87 S9        29.87F
RICHLANDS      CLOUDY    70  69  97 S8        29.87F
ROCKY MOUNT    CLOUDY    68  66  93 SW6       29.86F
WASHINGTON     CLOUDY    70  67  90 SW7       29.86R
WHITEVILLE     CLOUDY    72  69  91 S6        29.87S

$$

AMZ130-135-150-152-154-156-158-170-250-252-270-ANZ085-086-088-633-658-670-030900-
MARINE OBSERVATIONS

STATION/POSITION TIME  TEMP    WIND        PRES    WAVE   SWELL
                       AIR SEA DIR/SP/G            HT/PER HT/PER
                 (UTC) (F)     (DEG/KT/KT) (MB)    (FT/S) (FT/S)
CHESAPEAKE LIGHT 0800   68     240/  8/  8 1011.4
64 E VA BEACH    0750   59 54  210/ 12/ 12 1010.8    4/ 9   3/ 9
DUCK             0700   71 66  220/ 11/ 16 1010.3
2 E DUCK         0711      58                N/A     3/10
OREGON INLET     0700   72 72  190/ 19/ 23 1010.9
13E OREGON INLT  0800      61                N/A     4/ 6   2/10
HATTERAS CG      0700   72 70  200/ 12/ 17 1011.6
DIAMOND BUOY     0750   75 73  210/ 19/ 23 1011.5    4/10   2/10
CAPE LOOKOUT     0800   71     200/ 11/ 15 1011.6
BEAUFORT LAB     0700   71 68  200/ 14/ 15 1011.3
30 SE NEW RVR IN 0725      70                N/A     4/ 5   2/11
27 SE WRIGHTSVLE 0708   72 72  220/ 17/ 23 1011.5
5 SE WRIGHTSVLE  0708   72 69  200/ 17/ 25 1012.1
225 S CAPE HAT   0750   74 74  160/ 17/ 19 1015.7    4/10   3/10
41 SE CHARLESTON 0750   76 75  210/ 14/ 16 1011.8    4/ 6   2/ 9

$$




USA.gov is the U.S. government's official web portal to all federal, state and local government web resources and services.